sat.trackr.live / text

‹ back to catalog

STARLINK-35221

NORAD 65695 · 2025-212V

PAYLOAD ACTIVE UNKNOWN

§ Identity

Operator
Country
US
Launch date
2025-09-21
Launch site
AFETR
Launch vehicle
Mass (kg)
RCS (m²)

Purposes: comms

External: N2YO · Heavens-Above · Gunter

§ Orbital elements

Epoch: 2026-09-20T10:53:18.115296Z

Period
94.01 min
Inclination
53.1591°
Eccentricity
0.0001183
Mean motion
15.31720114 rev/d
Perigee alt
469.9 km
Apogee alt
471.5 km
Semi-major
6,848.8 km
B*
6.3966e-4
RAAN
160.2433°
Arg perigee
89.8151°
Mean anomaly
270.2987°
Rev number
5,708

§ Raw data

STARLINK-352211 65695U 25212V   26263.45368189  .00019549  00000+0  63966-3 0  99962 65695  53.1591 160.2433 0001183  89.8151 270.2987 15.31720114 57081

JSON: /api/v1/satellites/65695 · /tle

For live sub-satellite position, see the globe view (requires WebGL).

§ Visibility from observer

Set your observer location to see the next 7 days of passes ≥ 10°. The values pass through the URL so the page stays shareable.

No JS? Fill the form by hand. The geolocation button needs JavaScript.